CW6404 Weather Reports


Display with metric or nautical units.
time (UTC)temp
F
wind
direction
speed
MPH
gust
MPH
rain 1hr
in
rain 24hr
in
rain mn
in
humidity
%
barometer
mb
20260507010430 67 217 0.0 0.0 0.00 0.02 0.02 79 1007.2
20260507005909 67 217 0.0 0.0 0.00 0.02 0.02 79 1007.2
20260507005408 67 217 0.0 0.0 0.00 0.02 0.02 79 1007.2
20260507004850 67 217 0.0 0.0 0.00 0.02 0.02 78 1007.2
20260507004840 68 217 0.0 0.0 0.00 0.02 0.02 78 1007.3
20260507003827 68 217 0.0 0.0 0.00 0.02 0.02 78 1007.1
20260507003301 68 217 0.0 0.0 0.00 0.02 0.02 78 1007.3
20260507002750 68 218 0.0 0.0 0.00 0.02 0.02 78 1007.4
20260507002239 68 218 0.0 0.0 0.00 0.02 0.02 77 1007.3
20260507001737 68 219 0.0 0.0 0.00 0.02 0.02 77 1007.4
20260507001505 68 218 0.0 6.0 0.00 0.02 0.02 77 1007.0
20260507001000 68 215 1.0 6.0 0.00 0.02 0.02 77 1006.9
20260507000227 69 221 1.0 4.0 0.00 0.02 0.02 76 1006.8
20260506235707 69 190 0.0 4.0 0.00 0.02 0.02 76 1006.7
20260506235200 69 163 1.0 6.0 0.00 0.02 0.02 76 1006.4
20260506234704 69 221 0.0 6.0 0.00 0.02 0.02 76 1006.5
20260506234152 69 194 0.0 1.0 0.00 0.02 0.02 75 1006.6
20260506233645 69 196 0.0 4.0 0.00 0.02 0.02 75 1006.7
20260506233144 70 190 0.0 4.0 0.00 0.02 0.02 75 1006.7
20260506232645 70 183 1.0 4.0 0.00 0.02 0.02 75 1006.7
20260506232139 70 192 2.0 10.0 0.00 0.02 0.02 75 1006.8
20260506231638 70 185 3.0 10.0 0.00 0.02 0.02 75 1006.7
20260506231137 70 253 3.0 13.0 0.00 0.02 0.02 74 1006.7
20260506230638 70 244 4.0 13.0 0.00 0.02 0.02 74 1006.9
20260506230129 70 242 4.0 12.0 0.00 0.02 0.02 74 1006.8
20260506225622 70 254 5.0 12.0 0.00 0.02 0.02 74 1006.7
20260506225352 70 290 4.0 11.0 0.00 0.02 0.02 74 1006.7
20260506224622 70 234 4.0 11.0 0.00 0.02 0.02 74 1006.7
20260506224120 70 241 5.0 13.0 0.00 0.02 0.02 73 1006.9
20260506223622 70 250 5.0 13.0 0.00 0.02 0.02 73 1006.7
20260506223343 71 206 4.0 14.0 0.00 0.02 0.02 73 1006.8
20260506222602 71 141 3.0 14.0 0.00 0.02 0.02 73 1006.7
20260506222101 71 234 3.0 7.0 0.00 0.02 0.02 73 1006.5
20260506221557 71 213 4.0 10.0 0.00 0.02 0.02 73 1006.7
20260506221328 71 250 4.0 10.0 0.00 0.02 0.02 73 1006.7
20260506220553 71 271 3.0 10.0 0.00 0.02 0.02 73 1006.7
20260506220053 71 200 4.0 12.0 0.00 0.02 0.02 72 1006.5
20260506215552 71 259 5.0 12.0 0.00 0.02 0.02 72 1006.5
20260506215049 71 249 5.0 16.0 0.00 0.02 0.02 72 1006.4
20260506214551 71 240 5.0 16.0 0.00 0.02 0.02 73 1006.4
20260506214049 71 236 4.0 13.0 0.00 0.02 0.02 72 1006.5
20260506213548 71 244 5.0 12.0 0.00 0.02 0.02 72 1006.5
20260506213044 71 217 6.0 14.0 0.00 0.02 0.02 72 1006.4
20260506212542 71 242 7.0 16.0 0.00 0.02 0.02 72 1006.4
20260506212041 71 248 7.0 16.0 0.00 0.02 0.02 72 1006.4
20260506211542 71 249 5.0 14.0 0.00 0.02 0.02 71 1006.4
20260506211258 71 227 6.0 12.0 0.00 0.02 0.02 72 1006.3
20260506211133 71 238 5.0 12.0 0.00 0.02 0.02 72 1006.2
20260506210014 71 211 5.0 16.0 0.00 0.02 0.02 72 1006.2
20260506205501 71 246 5.0 16.0 0.00 0.02 0.02 71 1006.1
20260506204959 71 242 6.0 17.0 0.00 0.02 0.02 72 1006.0
20260506204731 71 244 6.0 17.0 0.00 0.02 0.02 71 1006.0
20260506204229 71 199 4.0 12.0 0.00 0.02 0.02 71 1006.0
20260506204124 71 218 5.0 13.0 0.00 0.02 0.02 71 1005.9
20260506202955 72 180 4.0 13.0 0.00 0.02 0.02 71 1005.9
20260506202458 72 186 4.0 12.0 0.00 0.02 0.02 71 1005.7
20260506201953 71 189 5.0 14.0 0.00 0.02 0.02 72 1005.7
20260506201447 71 194 6.0 14.0 0.00 0.02 0.02 71 1005.9
20260506200937 71 265 5.0 14.0 0.00 0.02 0.02 71 1005.9
20260506200426 71 242 4.0 14.0 0.00 0.02 0.02 71 1005.8
20260506195925 71 238 4.0 19.0 0.00 0.02 0.02 72 1006.1
20260506195656 71 207 5.0 19.0 0.00 0.02 0.02 72 1006.3
20260506194921 71 248 6.0 16.0 0.00 0.02 0.02 71 1006.2
20260506194422 71 209 5.0 15.0 0.00 0.02 0.02 72 1006.2
20260506193920 71 241 5.0 15.0 0.00 0.02 0.02 72 1006.3
20260506193419 71 136 6.0 13.0 0.00 0.02 0.02 71 1006.2
20260506192920 71 224 6.0 18.0 0.00 0.02 0.02 71 1006.3
20260506192409 71 256 6.0 18.0 0.00 0.02 0.02 71 1006.3
20260506191909 71 221 6.0 14.0 0.00 0.02 0.02 71 1006.4
20260506191408 71 169 6.0 13.0 0.00 0.02 0.02 72 1006.4
20260506190908 71 240 6.0 15.0 0.00 0.02 0.02 71 1006.7
20260506190406 71 253 7.0 17.0 0.00 0.02 0.02 72 1006.7
20260506185904 70 284 7.0 17.0 0.00 0.02 0.02 72 1006.7
20260506185636 70 238 7.0 16.0 0.00 0.02 0.02 72 1006.7
20260506185133 70 191 8.0 16.0 0.00 0.02 0.02 72 1006.9
20260506184359 70 248 8.0 19.0 0.00 0.02 0.02 72 1006.7
20260506183859 69 248 8.0 19.0 0.00 0.02 0.02 73 1006.7
20260506183402 69 219 7.0 17.0 0.00 0.02 0.02 72 1006.8
20260506182859 69 267 8.0 17.0 0.00 0.02 0.02 72 1006.8
20260506182630 69 200 8.0 19.0 0.00 0.02 0.02 73 1006.7
20260506181859 69 200 7.0 22.0 0.00 0.02 0.02 73 1006.8
20260506181400 69 259 7.0 23.0 0.00 0.02 0.02 73 1007.0
20260506180900 69 264 6.0 23.0 0.00 0.02 0.02 73 1006.9
20260506180406 69 184 7.0 18.0 0.00 0.02 0.02 75 1007.2
20260506180358 69 245 8.0 18.0 0.00 0.02 0.02 74 1007.3
20260506175350 69 234 6.0 18.0 0.01 0.02 0.02 75 1007.4
20260506174846 68 200 7.0 18.0 0.01 0.02 0.02 76 1007.3
20260506174345 68 211 7.0 24.0 0.01 0.02 0.02 76 1007.3
20260506173845 68 247 7.0 24.0 0.01 0.02 0.02 77 1007.4
20260506173346 68 206 6.0 15.0 0.01 0.02 0.02 78 1007.3
20260506172843 68 198 6.0 17.0 0.01 0.02 0.02 79 1007.2
20260506172343 67 205 3.0 21.0 0.01 0.02 0.02 79 1007.2
20260506171843 67 214 3.0 21.0 0.01 0.02 0.02 80 1007.3
20260506171342 67 163 4.0 11.0 0.01 0.02 0.02 80 1007.3
20260506170840 66 182 3.0 13.0 0.01 0.02 0.02 81 1007.3
20260506170605 66 218 6.0 18.0 0.01 0.02 0.02 80 1007.6
20260506170103 66 251 7.0 18.0 0.02 0.02 0.02 80 1007.8
20260506165332 66 169 6.0 15.0 0.01 0.01 0.01 81 1007.7
20260506164832 66 205 5.0 14.0 0.01 0.01 0.01 82 1007.7
20260506164329 66 165 4.0 14.0 0.01 0.01 0.01 82 1007.8
20260506163830 66 175 5.0 14.0 0.01 0.01 0.01 82 1007.8
20260506163327 66 164 3.0 14.0 0.01 0.01 0.01 81 1007.7
20260506162828 66 169 3.0 12.0 0.01 0.01 0.01 81 1007.9
20260506162319 66 195 3.0 12.0 0.01 0.01 0.01 81 1007.9
20260506162053 66 175 4.0 12.0 0.01 0.01 0.01 81 1007.7
20260506161309 66 183 5.0 12.0 0.01 0.01 0.01 80 1007.9
20260506160806 66 199 4.0 14.0 0.01 0.01 0.01 79 1008.4
20260506160304 66 213 5.0 14.0 0.00 0.00 0.00 78 1008.4
20260506155757 67 239 4.0 13.0 0.00 0.00 0.00 76 1008.8
20260506155257 68 167 5.0 15.0 0.00 0.00 0.00 74 1008.9
20260506154757 68 214 5.0 15.0 0.00 0.00 0.00 73 1009.0
20260506154246 68 195 5.0 13.0 0.00 0.00 0.00 72 1009.0
20260506154013 68 244 4.0 13.0 0.00 0.00 0.00 72 1009.0
20260506153242 68 185 5.0 19.0 0.00 0.00 0.00 71 1008.9
20260506152741 69 191 5.0 19.0 0.00 0.00 0.00 70 1008.9
20260506152241 69 237 4.0 14.0 0.00 0.00 0.00 70 1008.9
20260506151742 69 179 4.0 14.0 0.00 0.00 0.00 70 1008.9
20260506151239 69 238 4.0 14.0 0.00 0.00 0.00 70 1009.0
20260506150738 69 228 5.0 17.0 0.00 0.00 0.00 69 1009.0
20260506150237 69 235 6.0 17.0 0.00 0.00 0.00 68 1009.0
20260506145737 70 173 7.0 17.0 0.00 0.00 0.00 65 1008.8
20260506145236 71 259 7.0 18.0 0.00 0.00 0.00 64 1009.0
20260506144735 71 232 5.0 18.0 0.00 0.00 0.00 61 1008.8
20260506144235 72 236 5.0 15.0 0.00 0.00 0.00 61 1008.9
20260506143734 72 185 4.0 15.0 0.00 0.00 0.00 61 1008.9
20260506143225 73 192 3.0 13.0 0.00 0.00 0.00 61 1009.0
20260506142955 72 263 5.0 16.0 0.00 0.00 0.00 61 1008.9
20260506142851 72 199 6.0 16.0 0.00 0.00 0.00 62 1008.9
20260506141722 71 165 4.0 15.0 0.00 0.00 0.00 62 1008.9
20260506141224 71 165 3.0 11.0 0.00 0.00 0.00 63 1008.9
20260506140724 71 188 4.0 17.0 0.00 0.00 0.00 63 1008.9
20260506140454 70 159 5.0 17.0 0.00 0.00 0.00 63 1008.8
20260506135723 70 207 5.0 17.0 0.00 0.00 0.00 63 1009.0
20260506135456 70 223 6.0 16.0 0.00 0.00 0.00 63 1008.9
20260506134724 71 194 6.0 15.0 0.00 0.00 0.00 63 1008.7
20260506134223 70 165 5.0 15.0 0.00 0.00 0.00 63 1008.6
20260506133724 70 175 5.0 13.0 0.00 0.00 0.00 64 1008.8
20260506133229 70 175 4.0 15.0 0.00 0.00 0.00 64 1008.9
20260506133222 70 211 4.0 15.0 0.00 0.00 0.00 63 1008.8
20260506132206 70 176 6.0 14.0 0.00 0.00 0.00 64 1008.7
20260506131935 70 220 6.0 19.0 0.00 0.00 0.00 64 1008.9
20260506131204 69 229 7.0 19.0 0.00 0.00 0.00 64 1008.8
20260506130702 69 166 5.0 18.0 0.00 0.00 0.00 64 1008.7
20260506130202 69 247 6.0 16.0 0.00 0.00 0.00 64 1008.9
20260506125658 69 234 5.0 16.0 0.00 0.00 0.00 64 1008.9
20260506125416 69 159 3.0 11.0 0.00 0.00 0.00 64 1009.0
20260506124643 69 212 5.0 14.0 0.00 0.00 0.00 65 1009.1
20260506124142 69 176 5.0 14.0 0.00 0.00 0.00 65 1009.2
20260506123641 69 193 4.0 14.0 0.00 0.00 0.00 65 1008.9
20260506123141 69 252 4.0 14.0 0.00 0.00 0.00 65 1009.1
20260506122911 68 175 3.0 13.0 0.00 0.00 0.00 65 1009.0
20260506122142 68 175 4.0 15.0 0.00 0.00 0.00 65 1009.1
20260506121636 68 163 5.0 23.0 0.00 0.00 0.00 65 1009.2
20260506121128 68 187 6.0 23.0 0.00 0.00 0.00 65 1009.3
20260506120627 68 232 6.0 19.0 0.00 0.00 0.00 66 1009.2
20260506120128 67 239 5.0 19.0 0.00 0.00 0.00 67 1009.1
20260506115627 67 165 4.0 17.0 0.00 0.00 0.00 68 1009.1
20260506115359 67 176 4.0 16.0 0.00 0.00 0.00 68 1009.0
20260506114627 67 166 5.0 16.0 0.00 0.00 0.00 68 1009.0
20260506114128 66 229 5.0 16.0 0.00 0.00 0.00 69 1008.8
20260506113623 66 167 5.0 16.0 0.00 0.00 0.00 69 1008.9
20260506113122 66 154 4.0 12.0 0.00 0.00 0.00 69 1008.9
20260506112627 66 169 4.0 12.0 0.00 0.00 0.00 69 1008.9
20260506112121 66 169 4.0 18.0 0.00 0.00 0.00 69 1008.8
20260506111622 66 166 4.0 18.0 0.00 0.00 0.00 70 1008.8
20260506111352 66 157 4.0 11.0 0.00 0.00 0.00 70 1008.8
20260506110620 66 201 5.0 13.0 0.00 0.00 0.00 71 1008.9
20260506110119 65 171 4.0 13.0 0.00 0.00 0.00 71 1008.9
20260506105850 65 179 4.0 15.0 0.00 0.00 0.00 71 1008.9
20260506105118 65 169 5.0 15.0 0.00 0.00 0.00 72 1008.8
20260506104620 65 176 5.0 13.0 0.00 0.00 0.00 72 1008.8
20260506104115 65 203 4.0 13.0 0.00 0.00 0.00 72 1008.8
20260506103615 65 176 5.0 13.0 0.00 0.00 0.00 72 1008.8
20260506103345 65 199 5.0 14.0 0.00 0.00 0.00 72 1008.7
20260506102846 65 181 5.0 14.0 0.00 0.00 0.00 73 1008.8
20260506102116 65 200 3.0 11.0 0.00 0.00 0.00 73 1008.8
20260506102106 65 198 4.0 14.0 0.00 0.00 0.00 73 1008.8
20260506101109 65 168 4.0 16.0 0.00 0.00 0.00 73 1008.7
20260506100837 65 185 4.0 16.0 0.00 0.00 0.00 73 1008.8
20260506100108 65 172 4.0 12.0 0.00 0.00 0.00 72 1008.8
20260506095829 65 175 5.0 13.0 0.00 0.00 0.00 72 1008.8
20260506095100 65 186 4.0 13.0 0.00 0.00 0.00 72 1008.7
20260506094557 65 165 4.0 15.0 0.00 0.00 0.00 72 1008.7
20260506094057 65 166 5.0 15.0 0.00 0.00 0.00 72 1008.7
20260506093611 65 171 4.0 13.0 0.00 0.00 0.00 72 1008.7
20260506093601 65 212 4.0 13.0 0.00 0.00 0.00 72 1008.7
20260506093221 65 165 4.0 14.0 0.00 0.00 0.00 72 1008.6
20260506092056 65 167 5.0 14.0 0.00 0.00 0.00 72 1008.7
20260506091829 65 162 4.0 12.0 0.00 0.00 0.00 72 1008.6
20260506091057 65 162 4.0 12.0 0.00 0.00 0.00 72 1008.7
20260506090555 65 211 5.0 15.0 0.00 0.00 0.00 73 1008.7
20260506090055 65 183 5.0 15.0 0.00 0.00 0.00 73 1008.6
20260506085556 65 168 6.0 14.0 0.00 0.00 0.00 73 1008.6
20260506085052 65 205 5.0 17.0 0.00 0.00 0.00 74 1008.7
20260506084553 65 165 4.0 17.0 0.00 0.00 0.00 74 1008.6
20260506084050 65 171 5.0 14.0 0.00 0.00 0.00 74 1008.7
20260506083821 66 171 4.0 14.0 0.00 0.00 0.00 74 1008.7
20260506083052 66 186 3.0 13.0 0.00 0.00 0.00 74 1008.7
20260506082545 66 163 3.0 13.0 0.00 0.00 0.00 73 1008.8
20260506082034 66 177 4.0 11.0 0.00 0.00 0.00 73 1008.9
20260506081530 66 186 4.0 11.0 0.00 0.00 0.00 73 1009.0
20260506081030 66 143 4.0 12.0 0.00 0.00 0.00 73 1009.0
20260506080530 66 229 4.0 12.0 0.00 0.00 0.00 73 1009.0
20260506073014 67 269 5.0 18.0 0.00 0.00 0.00 72 1009.0
20260506072503 67 192 6.0 19.0 0.00 0.00 0.00 72 1009.0
20260506071954 67 200 5.0 19.0 0.00 0.00 0.00 72 1009.0
20260506071454 67 195 5.0 14.0 0.00 0.00 0.00 72 1009.0
20260506070953 67 196 5.0 26.0 0.00 0.00 0.00 72 1009.0
20260506070452 67 237 5.0 26.0 0.00 0.00 0.00 71 1009.0
20260506062448 68 182 4.0 10.0 0.00 0.00 0.00 71 1009.1
20260506061946 68 167 5.0 14.0 0.00 0.00 0.00 70 1009.2
20260506061442 69 159 5.0 14.0 0.00 0.00 0.00 70 1009.1
20260506060932 69 173 5.0 15.0 0.00 0.00 0.00 70 1009.1
20260506060428 69 178 6.0 15.0 0.00 0.00 0.00 69 1009.2
20260506051357 70 167 5.0 17.0 0.00 0.00 0.00 67 1009.5
20260506050856 70 198 5.0 17.0 0.00 0.00 0.00 67 1009.6
20260506050401 70 205 6.0 14.0 0.00 0.00 0.00 67 1009.6
20260506044849 71 180 5.0 17.0 0.00 0.00 0.00 67 1009.8
20260506044343 71 186 5.0 13.0 0.00 0.00 0.00 67 1009.7
20260506043836 71 168 4.0 12.0 0.00 0.00 0.00 67 1009.7
20260506043831 71 174 3.0 12.0 0.00 0.00 0.00 67 1009.7
20260506042826 71 167 3.0 12.0 0.00 0.00 0.00 66 1009.8
20260506042329 71 173 3.0 11.0 0.00 0.00 0.00 66 1009.8
20260506041825 71 168 4.0 15.0 0.00 0.00 0.00 66 1009.8
20260506041325 71 268 4.0 15.0 0.00 0.00 0.00 66 1009.7
20260506040824 71 138 4.0 13.0 0.00 0.00 0.00 66 1009.7
20260506040325 71 180 4.0 13.0 0.00 0.00 0.00 66 1009.7
20260506035829 71 144 3.0 10.0 0.00 0.00 0.00 66 1009.6
20260506035321 71 171 2.0 10.0 0.00 0.00 0.00 66 1009.6
20260506034820 70 178 1.0 8.0 0.00 0.00 0.00 67 1009.6
20260506034320 70 166 1.0 8.0 0.00 0.00 0.00 66 1009.6
20260506033819 70 185 1.0 9.0 0.00 0.00 0.00 66 1009.6
20260506033320 70 168 1.0 10.0 0.00 0.00 0.00 66 1009.6
20260506032821 70 171 1.0 10.0 0.00 0.00 0.00 66 1009.6
20260506032321 70 153 1.0 11.0 0.00 0.00 0.00 65 1009.7
20260506031811 70 151 1.0 11.0 0.00 0.00 0.00 65 1009.6
20260506031301 70 175 0.0 7.0 0.00 0.00 0.00 64 1009.7
20260506030757 70 184 0.0 9.0 0.00 0.00 0.00 64 1009.6
20260506030257 70 168 0.0 9.0 0.00 0.00 0.00 64 1009.7
20260506025756 70 175 0.0 9.0 0.00 0.00 0.00 63 1009.7
20260506025525 70 178 1.0 9.0 0.00 0.00 0.00 63 1009.8
20260506025027 71 173 1.0 7.0 0.00 0.00 0.00 62 1009.8
20260506024526 71 173 2.0 10.0 0.00 0.00 0.00 62 1009.8
20260506023749 71 159 2.0 10.0 0.00 0.00 0.00 61 1009.8
20260506023218 71 196 3.0 10.0 0.00 0.00 0.00 61 1009.8
20260506022709 71 177 3.0 12.0 0.00 0.00 0.00 61 1009.8
20260506022157 71 188 2.0 11.0 0.00 0.00 0.00 60 1009.8
20260506021653 71 207 1.0 7.0 0.00 0.00 0.00 60 1009.8
20260506021149 72 176 1.0 7.0 0.00 0.00 0.00 59 1009.8
20260506020641 72 169 1.0 10.0 0.00 0.00 0.00 59 1009.8
20260506020414 72 173 1.0 11.0 0.00 0.00 0.00 58 1009.7
20260506015639 72 177 2.0 11.0 0.00 0.00 0.00 58 1009.7
20260506015139 72 176 2.0 11.0 0.00 0.00 0.00 57 1009.6
20260506014634 73 171 2.0 11.0 0.00 0.00 0.00 57 1009.4
20260506014132 73 232 3.0 14.0 0.00 0.00 0.00 56 1009.3
20260506013632 73 163 2.0 14.0 0.00 0.00 0.00 56 1009.4
20260506013132 73 187 2.0 12.0 0.00 0.00 0.00 55 1009.3
20260506012629 73 175 2.0 11.0 0.00 0.00 0.00 55 1009.3
20260506012128 74 210 3.0 12.0 0.00 0.00 0.00 54 1009.2
20260506011628 74 155 5.0 12.0 0.00 0.00 0.00 54 1009.1
20260506011128 74 178 5.0 12.0 0.00 0.00 0.00 53 1008.9
20260506010631 74 167 3.0 12.0 0.00 0.00 0.00 52 1008.9